Weather History for Cherokee, IA

Change the Weather History Date:

Saturday, February 2, 2013

  Actual Average Record
Temperature  
Mean Temperature -3 °C -  
Max Temperature 3 °C -4 °C 12 °C (1987)
Min Temperature -9 °C -16 °C -31 °C (1979)
Degree Days  
Heating Degree Days 38    
Moisture  
Dew Point -10 °C    
Average Humidity 64    
Maximum Humidity 83    
Minimum Humidity 45    
Precipitation  
Precipitation 0.00 mm - - ()
Sea Level Pressure  
Sea Level Pressure 1018 hPa    
Wind  
Wind Speed 14 km/h (WNW)    
Max Wind Speed 35 km/h    
Max Gust Speed 60 km/h    
Visibility 14 kilometers    
Events Snow    
Averages and records for this station are not official NWS values.
T = Trace of Precipitation, MM = Missing Value Source: NWS Daily Summary

Daily Weather History Graph

Daily Weather History Graph

Search for Another Location

Airport:

Trip Planner

Search our weather history database for the weather conditions in past years. The results will help you decide how hot, cold, wet, or windy it might be!

Date:

Astronomy

Feb. 02, 2013 Rise Set
Actual Time 7:35 AM CST 5:37 PM CST
Civil Twilight 7:05 AM CST 6:07 PM CST
Nautical Twilight 6:31 AM CST 6:40 PM CST
Astronomical Twilight 5:58 AM CST 7:13 PM CST
Moon No Moon Rise 10:35 AM CST (2/2)
Length of Visible Light 11h 01m
Length of Day
10h 02m
Waning Gibbous, 59% of the Moon is Illuminated
Feb 2
Waning Gibbous
Feb 3
Last Quarter
Feb 10
New
Feb 17
First Quarter
Feb 25
Full

Hourly Weather History & Observations

Time (CST) Temp. Windchill Dew Point Humidity Pressure Visibility Wind Dir Wind Speed Gust Speed Precip Events Conditions
12:15 AM -4.5 °C -9.0 °C -9.6 °C 68% 1016.5 hPa 16.1 km NNW 11.1 km/h / 3.1 m/s - N/A   Clear
12:35 AM -4.6 °C -10.0 °C -10.0 °C 66% 1016.8 hPa 16.1 km NW 14.8 km/h / 4.1 m/s - N/A   Clear
12:55 AM -5.0 °C -11.9 °C -10.5 °C 66% 1017.2 hPa 16.1 km NNW 22.2 km/h / 6.2 m/s 31.5 km/h / 8.7 m/s N/A   Clear
1:15 AM -5.5 °C -11.9 °C -10.7 °C 67% 1017.2 hPa 16.1 km NW 18.5 km/h / 5.1 m/s 29.6 km/h / 8.2 m/s N/A   Scattered Clouds
1:35 AM -5.6 °C -12.3 °C -10.5 °C 69% 1017.5 hPa 16.1 km NW 20.4 km/h / 5.7 m/s 33.3 km/h / 9.3 m/s N/A   Overcast
1:55 AM -5.6 °C -11.3 °C -10.5 °C 69% 1017.5 hPa 16.1 km NNW 14.8 km/h / 4.1 m/s - N/A   Overcast
2:15 AM -5.8 °C -11.9 °C -10.7 °C 69% 1017.8 hPa 16.1 km NNW 16.7 km/h / 4.6 m/s 25.9 km/h / 7.2 m/s N/A   Overcast
2:35 AM -6.0 °C -12.5 °C -11.0 °C 68% 1018.2 hPa 16.1 km NNW 18.5 km/h / 5.1 m/s 33.3 km/h / 9.3 m/s N/A   Overcast
2:55 AM -6.0 °C -12.8 °C -11.2 °C 67% 1018.5 hPa 16.1 km NNW 20.4 km/h / 5.7 m/s 27.8 km/h / 7.7 m/s N/A   Overcast
3:15 AM -6.1 °C -13.0 °C -11.5 °C 66% 1018.5 hPa 16.1 km NNW 20.4 km/h / 5.7 m/s - N/A   Overcast
3:35 AM -6.2 °C -13.4 °C -12.0 °C 64% 1018.5 hPa 16.1 km North 22.2 km/h / 6.2 m/s 33.3 km/h / 9.3 m/s N/A   Overcast
3:55 AM -6.3 °C -11.7 °C -12.0 °C 65% 1018.5 hPa 16.1 km NNW 13.0 km/h / 3.6 m/s - N/A   Overcast
4:15 AM -6.5 °C -11.9 °C -12.3 °C 64% 1019.2 hPa 16.1 km NNW 13.0 km/h / 3.6 m/s - N/A   Overcast
4:35 AM -6.8 °C -13.5 °C -12.5 °C 64% 1019.5 hPa 16.1 km NNW 18.5 km/h / 5.1 m/s 29.6 km/h / 8.2 m/s N/A   Mostly Cloudy
4:55 AM -7.0 °C -13.4 °C -12.9 °C 63% 1019.9 hPa 16.1 km NNW 16.7 km/h / 4.6 m/s - N/A   Mostly Cloudy
5:15 AM -7.6 °C -13.7 °C -13.5 °C 63% 1020.2 hPa 16.1 km NNW 14.8 km/h / 4.1 m/s - N/A   Scattered Clouds
5:35 AM -8.0 °C -13.2 °C -13.5 °C 65% 1020.5 hPa 16.1 km NNW 11.1 km/h / 3.1 m/s - N/A   Clear
5:55 AM -8.5 °C -14.3 °C -13.6 °C 67% 1020.5 hPa 16.1 km NNW 13.0 km/h / 3.6 m/s - N/A   Clear
6:15 AM -8.7 °C -14.6 °C -14.0 °C 66% 1020.5 hPa 16.1 km North 13.0 km/h / 3.6 m/s - N/A   Clear
6:35 AM -8.8 °C -14.7 °C -14.0 °C 67% 1020.9 hPa 16.1 km North 13.0 km/h / 3.6 m/s - N/A   Scattered Clouds
6:55 AM -8.7 °C -14.0 °C -14.1 °C 66% 1020.9 hPa 16.1 km North 11.1 km/h / 3.1 m/s - N/A   Overcast
7:15 AM -8.6 °C -13.3 °C -14.0 °C 66% 1021.2 hPa 16.1 km NNW 9.3 km/h / 2.6 m/s - N/A   Overcast
7:35 AM -8.5 °C -13.2 °C -13.8 °C 66% 1021.2 hPa 16.1 km NNW 9.3 km/h / 2.6 m/s - N/A   Overcast
7:55 AM -9.0 °C -13.0 °C -14.2 °C 67% 1020.9 hPa 16.1 km NNW 7.4 km/h / 2.1 m/s - N/A   Scattered Clouds
8:15 AM -8.2 °C -11.2 °C -14.1 °C 63% 1020.9 hPa 16.1 km NNW 5.6 km/h / 1.5 m/s - N/A   Mostly Cloudy
8:35 AM -8.2 °C - -14.5 °C 61% 1020.9 hPa 16.1 km Calm Calm - N/A   Overcast
8:55 AM -7.9 °C -11.7 °C -14.8 °C 58% 1021.2 hPa 16.1 km North 7.4 km/h / 2.1 m/s - N/A   Overcast
9:15 AM -7.7 °C -10.6 °C -15.5 °C 54% 1021.2 hPa 16.1 km North 5.6 km/h / 1.5 m/s - N/A   Overcast
9:35 AM -7.7 °C - -15.3 °C 55% 1021.2 hPa 16.1 km Calm Calm - N/A   Mostly Cloudy
9:55 AM -7.1 °C - -15.2 °C 53% 1021.2 hPa 16.1 km Calm Calm - N/A   Scattered Clouds
10:15 AM -6.8 °C - -15.6 °C 50% 1021.2 hPa 16.1 km Calm Calm - N/A   Overcast
10:35 AM -6.0 °C - -15.6 °C 47% 1021.2 hPa 16.1 km Calm Calm - N/A   Overcast
10:55 AM -6.2 °C - -15.7 °C 48% 1020.9 hPa 16.1 km Calm Calm - N/A   Overcast
11:15 AM -5.7 °C - -15.5 °C 47% 1021.2 hPa 16.1 km Calm Calm - N/A   Overcast
11:35 AM -5.1 °C - -15.1 °C 46% 1020.9 hPa 16.1 km Calm Calm - N/A   Overcast
11:55 AM -4.8 °C -8.1 °C -14.9 °C 46% 1020.5 hPa 16.1 km SSW 7.4 km/h / 2.1 m/s - N/A   Overcast
12:15 PM -4.3 °C - -14.6 °C 45% 1020.2 hPa 16.1 km Calm Calm - N/A   Overcast
12:35 PM -4.0 °C -7.8 °C -14.1 °C 46% 1019.9 hPa 16.1 km WSW 9.3 km/h / 2.6 m/s - N/A   Overcast
12:55 PM -4.0 °C -7.2 °C -13.1 °C 50% 1019.9 hPa 11.3 km WSW 7.4 km/h / 2.1 m/s - N/A   Overcast
1:15 PM -3.6 °C -7.9 °C -11.6 °C 54% 1019.5 hPa 8.0 km WSW 11.1 km/h / 3.1 m/s - N/A Snow Light Snow
1:35 PM -3.6 °C -7.9 °C -11.3 °C 56% 1019.2 hPa 16.1 km WSW 11.1 km/h / 3.1 m/s - N/A   Overcast
1:55 PM -3.0 °C -7.2 °C -10.6 °C 56% 1018.5 hPa 16.1 km SW 11.1 km/h / 3.1 m/s - N/A   Overcast
2:15 PM -3.0 °C -7.6 °C -10.4 °C 57% 1018.2 hPa 16.1 km SSW 13.0 km/h / 3.6 m/s - N/A   Overcast
2:35 PM -3.1 °C -7.3 °C -10.6 °C 57% 1017.8 hPa 16.1 km SW 11.1 km/h / 3.1 m/s - N/A   Overcast
2:55 PM -2.7 °C -7.7 °C -10.4 °C 56% 1017.5 hPa 16.1 km SSW 14.8 km/h / 4.1 m/s - N/A   Overcast
3:15 PM -2.6 °C -7.2 °C -9.7 °C 59% 1017.5 hPa 16.1 km SSW 13.0 km/h / 3.6 m/s - N/A   Overcast
3:35 PM -2.6 °C -7.9 °C -9.8 °C 58% 1017.2 hPa 16.1 km SSW 16.7 km/h / 4.6 m/s - N/A   Overcast
3:55 PM -2.6 °C -7.9 °C -8.2 °C 66% 1016.5 hPa 2.4 km SW 16.7 km/h / 4.6 m/s - N/A Snow Light Snow
4:15 PM -3.0 °C -8.0 °C -6.7 °C 76% 1016.5 hPa 1.2 km SSW 14.8 km/h / 4.1 m/s - N/A Snow Light Snow
4:35 PM -3.0 °C -7.6 °C -6.3 °C 78% 1016.5 hPa 1.2 km SSW 13.0 km/h / 3.6 m/s - N/A Snow Light Snow
4:55 PM -3.0 °C -8.0 °C -6.0 °C 80% 1016.1 hPa 4.8 km SSW 14.8 km/h / 4.1 m/s - N/A Snow Light Snow
5:15 PM -2.6 °C -8.3 °C -5.6 °C 80% 1015.5 hPa 2.0 km SSW 18.5 km/h / 5.1 m/s - N/A Snow Light Snow
5:35 PM -2.5 °C -7.4 °C -5.3 °C 81% 1015.5 hPa 1.6 km SSW 14.8 km/h / 4.1 m/s - N/A Snow Light Snow
5:55 PM -2.4 °C -6.9 °C -5.1 °C 82% 1015.5 hPa 2.8 km SW 13.0 km/h / 3.6 m/s - N/A Snow Light Snow
6:15 PM -2.1 °C -6.5 °C -5.0 °C 81% 1015.5 hPa 11.3 km SSW 13.0 km/h / 3.6 m/s - N/A   Overcast
6:35 PM -1.1 °C -5.3 °C -3.8 °C 82% 1015.5 hPa 11.3 km SW 13.0 km/h / 3.6 m/s - N/A   Overcast
6:55 PM -0.5 °C -5.0 °C -3.2 °C 82% 1015.1 hPa 11.3 km SW 14.8 km/h / 4.1 m/s - N/A   Overcast
7:15 PM 0.0 °C - -2.5 °C 83% 1015.1 hPa 16.1 km Calm Calm - N/A   Overcast
7:35 PM 0.5 °C - -2.2 °C 82% 1015.1 hPa 16.1 km Calm Calm - N/A   Overcast
7:55 PM 1.8 °C -2.7 °C -1.5 °C 79% 1015.1 hPa 16.1 km West 18.5 km/h / 5.1 m/s 25.9 km/h / 7.2 m/s N/A   Overcast
8:15 PM 2.9 °C -1.4 °C -1.3 °C 74% 1015.1 hPa 16.1 km WNW 18.5 km/h / 5.1 m/s - N/A   Overcast
8:35 PM 3.6 °C -1.2 °C -2.1 °C 67% 1015.1 hPa 16.1 km WNW 24.1 km/h / 6.7 m/s 38.9 km/h / 10.8 m/s N/A   Overcast
8:55 PM 3.8 °C -1.3 °C -3.6 °C 59% 1015.1 hPa 16.1 km NW 27.8 km/h / 7.7 m/s 42.6 km/h / 11.8 m/s N/A   Overcast
9:15 PM 3.1 °C -2.4 °C -4.0 °C 60% 1015.8 hPa 16.1 km NW 29.6 km/h / 8.2 m/s 59.3 km/h / 16.5 m/s N/A   Overcast
9:35 PM 1.8 °C -4.2 °C -5.4 °C 59% 1016.1 hPa 11.3 km NW 31.5 km/h / 8.7 m/s 57.4 km/h / 15.9 m/s N/A   Mostly Cloudy
9:55 PM 0.6 °C -6.2 °C -6.4 °C 60% 1016.5 hPa 16.1 km NW 35.2 km/h / 9.8 m/s 51.9 km/h / 14.4 m/s N/A   Scattered Clouds
10:15 PM 0.0 °C -6.6 °C -7.1 °C 59% 1017.2 hPa 16.1 km NW 31.5 km/h / 8.7 m/s 50.0 km/h / 13.9 m/s N/A   Scattered Clouds
10:35 PM -0.9 °C -6.7 °C -8.1 °C 59% 1017.2 hPa 16.1 km NW 22.2 km/h / 6.2 m/s 46.3 km/h / 12.9 m/s N/A   Scattered Clouds
10:55 PM -1.1 °C -6.9 °C -7.6 °C 62% 1017.2 hPa 16.1 km NW 22.2 km/h / 6.2 m/s 42.6 km/h / 11.8 m/s N/A   Overcast
11:15 PM -1.9 °C -8.4 °C -8.1 °C 63% 1017.2 hPa 16.1 km NW 25.9 km/h / 7.2 m/s 38.9 km/h / 10.8 m/s N/A   Mostly Cloudy
11:35 PM -2.0 °C -8.6 °C -8.5 °C 62% 1017.8 hPa 16.1 km NW 25.9 km/h / 7.2 m/s 38.9 km/h / 10.8 m/s N/A   Overcast
11:55 PM -2.5 °C -8.1 °C -9.0 °C 61% 1018.2 hPa 16.1 km NW 18.5 km/h / 5.1 m/s 35.2 km/h / 9.8 m/s N/A   Overcast